• In Latvia
  • List of Countries
  • For 7 days
  • Water Temperature
  • Satellite Maps
  • Weather Map
  • Weather Widgets
  • user-avatar
    Login

    Hourly Weather Perth

    Today, 21 June, Thursday

    Time Temperature Precipitation Wind Pressure Humidity
    00:00 +14°C° 0 mm 1 mps 769 mmHg 90%
    01:00 +14°C° 0 mm 1 mps 769 mmHg 90%
    02:00 +13°C° 0 mm 1 mps 769 mmHg 90%
    03:00 +13°C° 0 mm 1 mps 769 mmHg 90%
    04:00 +13°C° 0 mm 1 mps 769 mmHg 90%
    05:00 +13°C° 0 mm 1 mps 769 mmHg 90%
    06:00 +13°C° 0 mm 1 mps 769 mmHg 89%
    07:00 +13°C° 0 mm 1 mps 769 mmHg 89%
    08:00 +14°C° 0 mm 2 mps 770 mmHg 84%
    09:00 +16°C° 0 mm 2 mps 770 mmHg 77%
    10:00 +18°C° 0 mm 2 mps 769 mmHg 70%
    11:00 +21°C° 0 mm 1 mps 769 mmHg 63%
    12:00 +20°C° 0.1 mm 2 mps 769 mmHg 62%
    13:00 +20°C° 0.1 mm 2 mps 769 mmHg 60%
    14:00 +21°C° 0.1 mm 2 mps 768 mmHg 59%
    15:00 +20°C° 0.1 mm 2 mps 769 mmHg 64%
    16:00 +19°C° 0.1 mm 2 mps 769 mmHg 70%
    17:00 +18°C° 0.1 mm 2 mps 769 mmHg 75%
    18:00 +18°C° 0 mm 1 mps 769 mmHg 78%
    19:00 +16°C° 0 mm 1 mps 769 mmHg 81%
    20:00 +15°C° 0 mm 1 mps 769 mmHg 84%
    21:00 +15°C° 0 mm 1 mps 769 mmHg 85%
    22:00 +15°C° 0 mm 1 mps 769 mmHg 85%
    23:00 +14°C° 0 mm 1 mps 769 mmHg 86%

    Tomorrow, 22 June, Friday

    Time Temperature Precipitation Wind Pressure Humidity
    00:00 +14°C° 0 mm 1 mps 769 mmHg 86%
    01:00 +14°C° 0 mm 1 mps 769 mmHg 86%
    02:00 +14°C° 0 mm 2 mps 769 mmHg 86%
    03:00 +13°C° 0 mm 2 mps 769 mmHg 86%
    04:00 +13°C° 0 mm 2 mps 769 mmHg 86%
    05:00 +13°C° 0 mm 2 mps 769 mmHg 86%
    06:00 +13°C° 0 mm 2 mps 769 mmHg 86%
    07:00 +13°C° 0 mm 2 mps 770 mmHg 86%
    08:00 +13°C° 0 mm 2 mps 770 mmHg 85%
    09:00 +15°C° 0 mm 2 mps 770 mmHg 77%
    10:00 +17°C° 0 mm 2 mps 770 mmHg 70%
    11:00 +19°C° 0 mm 2 mps 770 mmHg 62%
    12:00 +21°C° 0 mm 1 mps 770 mmHg 58%
    13:00 +22°C° 0 mm 1 mps 770 mmHg 54%
    14:00 +23°C° 0 mm 1 mps 769 mmHg 51%
    15:00 +22°C° 0 mm 1 mps 769 mmHg 55%
    16:00 +21°C° 0 mm 1 mps 769 mmHg 60%
    17:00 +19°C° 0 mm 1 mps 769 mmHg 64%
    18:00 +19°C° 0 mm 1 mps 769 mmHg 69%
    19:00 +18°C° 0 mm 1 mps 770 mmHg 73%
    20:00 +16°C° 0 mm 2 mps 770 mmHg 78%
    21:00 +15°C° 0 mm 2 mps 770 mmHg 80%
    22:00 +15°C° 0 mm 2 mps 770 mmHg 81%
    23:00 +14°C° 0 mm 2 mps 770 mmHg 83%

    Day after tomorrow, 23 June, Saturday

    Time Temperature Precipitation Wind Pressure Humidity
    00:00 +14°C° 0 mm 2 mps 770 mmHg 82%
    01:00 +14°C° 0 mm 2 mps 770 mmHg 82%
    02:00 +14°C° 0 mm 2 mps 770 mmHg 81%
    03:00 +14°C° 0 mm 2 mps 770 mmHg 81%
    04:00 +12°C° 0 mm 3 mps 770 mmHg 81%
    05:00 +12°C° 0 mm 3 mps 770 mmHg 81%
    06:00 +12°C° 0 mm 3 mps 770 mmHg 80%
    07:00 +12°C° 0 mm 3 mps 771 mmHg 80%
    08:00 +12°C° 0 mm 3 mps 771 mmHg 79%
    09:00 +14°C° 0 mm 3 mps 771 mmHg 72%
    10:00 +17°C° 0 mm 3 mps 771 mmHg 65%
    11:00 +19°C° 0 mm 3 mps 771 mmHg 57%
    12:00 +20°C° 0 mm 3 mps 771 mmHg 53%
    13:00 +21°C° 0 mm 2 mps 770 mmHg 48%
    14:00 +23°C° 0 mm 2 mps 769 mmHg 44%
    15:00 +22°C° 0 mm 1 mps 769 mmHg 48%
    16:00 +21°C° 0 mm 1 mps 770 mmHg 51%
    17:00 +20°C° 0 mm 1 mps 770 mmHg 55%
    18:00 +19°C° 0 mm 1 mps 770 mmHg 58%
    19:00 +17°C° 0 mm 2 mps 770 mmHg 61%
    20:00 +16°C° 0 mm 2 mps 771 mmHg 64%
    21:00 +16°C° 0 mm 2 mps 771 mmHg 65%
    22:00 +14°C° 0 mm 3 mps 771 mmHg 66%
    23:00 +14°C° 0 mm 3 mps 771 mmHg 68%

    24 June, Sunday

    Time Temperature Precipitation Wind Pressure Humidity
    00:00 +13°C° 0 mm 3 mps 771 mmHg 70%
    01:00 +13°C° 0 mm 3 mps 771 mmHg 71%
    02:00 +13°C° 0 mm 4 mps 771 mmHg 73%
    03:00 +13°C° 0 mm 4 mps 770 mmHg 74%
    04:00 +12°C° 0 mm 4 mps 770 mmHg 75%
    05:00 +12°C° 0 mm 4 mps 770 mmHg 76%
    06:00 +12°C° 0 mm 4 mps 771 mmHg 75%
    07:00 +12°C° 0 mm 4 mps 771 mmHg 74%
    08:00 +12°C° 0 mm 4 mps 771 mmHg 73%
    09:00 +14°C° 0 mm 4 mps 771 mmHg 66%
    10:00 +17°C° 0 mm 4 mps 771 mmHg 58%
    11:00 +19°C° 0 mm 4 mps 771 mmHg 50%
    12:00 +20°C° 0 mm 4 mps 771 mmHg 48%
    13:00 +21°C° 0 mm 3 mps 770 mmHg 45%
    14:00 +21°C° 0 mm 3 mps 769 mmHg 43%
    15:00 +20°C° 0 mm 3 mps 769 mmHg 47%
    16:00 +19°C° 0 mm 2 mps 769 mmHg 51%
    17:00 +18°C° 0 mm 2 mps 769 mmHg 54%
    18:00 +17°C° 0 mm 2 mps 770 mmHg 57%
    19:00 +16°C° 0 mm 2 mps 770 mmHg 60%
    20:00 +15°C° 0 mm 2 mps 770 mmHg 63%
    21:00 +14°C° 0 mm 3 mps 770 mmHg 64%
    22:00 +14°C° 0 mm 3 mps 770 mmHg 65%
    23:00 +13°C° 0 mm 3 mps 770 mmHg 65%

    25 June, Monday

    Time Temperature Precipitation Wind Pressure Humidity
    00:00 +13°C° 0 mm 3 mps 770 mmHg 65%
    01:00 +13°C° 0 mm 4 mps 770 mmHg 64%
    02:00 +12°C° 0 mm 4 mps 770 mmHg 64%
    03:00 +12°C° 0 mm 4 mps 769 mmHg 64%
    04:00 +12°C° 0 mm 4 mps 769 mmHg 63%
    05:00 +12°C° 0 mm 4 mps 769 mmHg 63%
    06:00 +12°C° 0 mm 4 mps 770 mmHg 64%
    07:00 +12°C° 0 mm 4 mps 770 mmHg 65%
    08:00 +12°C° 0 mm 5 mps 770 mmHg 66%
    09:00 +14°C° 0 mm 5 mps 770 mmHg 60%
    10:00 +16°C° 0 mm 5 mps 770 mmHg 55%
    11:00 +19°C° 0 mm 5 mps 770 mmHg 50%
    12:00 +19°C° 0 mm 4 mps 769 mmHg 47%
    13:00 +20°C° 0 mm 4 mps 768 mmHg 45%
    14:00 +21°C° 0 mm 3 mps 768 mmHg 42%
    15:00 +20°C° 0 mm 3 mps 768 mmHg 45%
    16:00 +19°C° 0 mm 2 mps 768 mmHg 49%
    17:00 +19°C° 0 mm 1 mps 768 mmHg 52%
    18:00 +17°C° 0 mm 2 mps 768 mmHg 55%
    19:00 +16°C° 0 mm 2 mps 768 mmHg 57%
    20:00 +15°C° 0 mm 2 mps 768 mmHg 60%
    21:00 +14°C° 0 mm 2 mps 768 mmHg 60%
    22:00 +13°C° 0 mm 3 mps 768 mmHg 59%
    23:00 +12°C° 0 mm 3 mps 768 mmHg 59%

    26 June, Tuesday

    Time Temperature Precipitation Wind Pressure Humidity
    00:00 +12°C° 0 mm 3 mps 768 mmHg 59%
    01:00 +12°C° 0 mm 4 mps 768 mmHg 58%
    02:00 +12°C° 0 mm 4 mps 767 mmHg 57%
    03:00 +12°C° 0 mm 4 mps 767 mmHg 57%
    04:00 +11°C° 0 mm 4 mps 767 mmHg 57%
    05:00 +11°C° 0 mm 4 mps 767 mmHg 57%
    06:00 +11°C° 0 mm 4 mps 767 mmHg 57%
    07:00 +10°C° 0 mm 5 mps 767 mmHg 57%
    08:00 +12°C° 0 mm 5 mps 767 mmHg 57%
    09:00 +14°C° 0 mm 5 mps 767 mmHg 52%
    10:00 +16°C° 0 mm 5 mps 767 mmHg 48%
    11:00 +19°C° 0 mm 5 mps 767 mmHg 43%
    12:00 +20°C° 0 mm 5 mps 766 mmHg 42%
    13:00 +21°C° 0 mm 5 mps 766 mmHg 41%
    14:00 +22°C° 0 mm 5 mps 765 mmHg 40%
    15:00 +21°C° 0 mm 4 mps 765 mmHg 44%
    16:00 +20°C° 0 mm 3 mps 765 mmHg 48%
    17:00 +19°C° 0 mm 3 mps 765 mmHg 52%
    18:00 +18°C° 0 mm 3 mps 765 mmHg 54%
    19:00 +17°C° 0 mm 3 mps 765 mmHg 56%
    20:00 +16°C° 0 mm 3 mps 766 mmHg 58%
    21:00 +16°C° 0 mm 3 mps 766 mmHg 58%
    22:00 +14°C° 0 mm 3 mps 766 mmHg 57%
    23:00 +14°C° 0 mm 3 mps 765 mmHg 57%
    Show more